Theta_e
356 357 358 359 357 358 356 354 352 353 356 355 351 351 352 355 355 354 355 355 356 361 361 363 363 363 363 362 363 363 363 363 362 362 362 361 362 363 363 364 364 363 363 364 363 363 363 363 362 362 362 363 362 361 362 362 362 362 362 361 362 362 362 362 362 362 361 360 360 361 361 361 362 362 362 362 362 362 362 361 360 359 359 362 361
356 357 358 360 356 358 356 353 350 348 353 355 351 352 350 353 354 355 355 356 358 362 363 363 363 363 363 363 362 362 362 362 362 362 361 361 362 362 362 363 363 363 363 364 363 363 363 363 363 362 362 362 360 361 361 361 361 362 362 362 362 361 361 361 361 361 360 361 359 360 360 361 360 362 362 362 362 362 362 361 359 359 359 360 361
357 358 358 360 357 358 356 354 353 349 353 356 355 352 351 355 355 354 355 358 362 363 362 362 363 363 363 363 363 362 361 362 361 361 361 361 361 362 362 362 363 364 363 363 363 363 362 363 362 361 362 361 360 360 360 360 360 361 361 362 362 361 361 361 361 361 361 361 361 361 361 360 361 362 361 361 360 360 361 361 360 359 360 359 360
356 356 358 360 359 358 358 358 357 356 355 356 355 356 357 358 357 357 361 362 362 362 362 361 363 362 362 363 363 362 363 362 362 362 362 362 363 363 363 362 363 364 363 362 362 363 362 361 360 361 360 361 360 359 359 360 360 361 361 361 361 361 361 361 361 361 361 361 361 362 362 360 362 361 362 362 362 362 361 361 360 361 359 360 359
355 357 358 360 361 359 358 359 359 357 353 356 356 359 360 363 362 362 362 362 361 361 361 362 361 361 362 363 362 362 362 361 362 362 362 359 358 362 363 362 363 363 363 363 363 362 363 360 358 358 360 360 359 360 360 360 361 360 361 361 362 362 361 362 361 362 362 361 361 362 364 363 364 362 362 361 361 360 360 359 358 359 359 359 359
356 357 358 358 359 360 357 359 359 359 358 359 359 361 362 362 362 360 360 361 362 361 362 361 361 362 361 362 362 362 362 361 362 362 359 356 360 359 360 362 362 362 363 363 362 362 362 363 361 357 357 359 359 359 361 361 361 361 361 361 362 361 361 362 361 361 362 362 361 363 362 363 362 360 361 361 361 360 360 359 359 359 359 359 359
357 359 358 358 360 360 358 359 359 359 359 361 362 362 361 361 360 359 359 359 360 360 360 362 361 361 360 361 362 362 361 360 361 360 360 358 356 357 360 361 362 362 362 362 362 363 363 363 359 356 355 354 356 357 359 361 360 361 361 360 361 362 362 362 362 363 362 360 363 363 360 360 360 360 360 361 361 360 359 359 359 359 358 358 356
359 359 360 361 361 360 360 361 361 362 361 361 361 361 361 361 360 359 359 358 359 360 360 360 361 361 359 359 361 361 360 361 360 360 358 356 356 356 355 358 360 361 363 362 362 363 363 362 358 357 356 353 355 357 358 359 360 360 360 361 362 361 361 362 362 363 361 361 362 361 361 361 360 359 359 360 359 359 359 359 359 359 358 358 357
357 360 361 361 362 361 361 361 361 360 361 361 361 361 361 361 359 359 360 360 359 359 360 360 361 361 361 360 361 361 360 360 360 358 356 356 355 352 352 355 357 360 363 363 363 363 364 363 362 358 358 357 356 356 357 358 358 359 360 360 361 362 362 362 362 361 359 361 361 361 361 361 357 359 359 359 359 359 358 358 359 358 357 358 357
357 360 360 361 362 362 361 361 361 360 361 360 360 361 360 360 360 359 360 359 360 359 359 360 359 360 361 360 360 360 360 358 358 357 355 355 356 354 351 351 356 361 362 363 362 362 363 362 361 361 359 357 357 354 354 357 360 361 361 361 362 362 362 362 362 361 360 361 361 360 361 358 357 358 358 358 358 358 358 358 360 359 359 358 358
358 359 360 361 361 361 361 361 361 361 361 360 360 360 359 359 360 360 360 359 359 360 359 359 359 360 359 360 361 359 359 357 357 356 356 354 355 356 353 353 355 360 362 361 362 361 362 361 362 361 360 359 357 357 356 358 360 360 361 362 363 362 362 361 359 359 361 360 360 361 359 357 359 360 358 359 358 357 358 358 359 359 359 359 358
357 359 361 360 362 360 361 360 360 360 360 360 358 357 357 358 359 359 359 359 359 359 359 360 359 359 359 360 360 359 358 358 357 356 356 354 351 353 352 354 354 361 361 361 361 362 361 361 362 360 360 358 358 356 356 359 360 360 362 362 362 361 361 360 358 358 360 358 358 358 357 356 359 357 357 358 358 358 359 358 358 358 357 357 357
355 357 359 360 360 359 359 360 360 360 360 359 357 356 357 357 357 358 358 359 359 358 359 359 359 359 359 359 360 360 358 357 356 356 354 351 350 349 354 355 358 360 361 362 361 360 361 361 360 359 357 356 355 354 358 361 360 361 361 361 361 360 361 359 359 358 359 360 360 359 358 360 360 360 358 358 358 358 357 357 356 357 357 356 356
354 356 358 360 361 359 360 360 360 359 360 359 357 356 356 357 358 358 357 357 358 359 359 359 358 359 359 360 359 360 360 358 357 356 353 352 351 348 351 357 360 363 362 360 359 360 359 360 359 357 357 354 351 354 356 360 361 360 360 360 361 361 360 358 355 357 359 359 359 358 359 361 361 360 358 357 356 356 356 356 356 356 356 355 355
354 356 358 360 361 361 357 357 358 357 358 357 357 355 357 357 357 357 357 357 357 358 358 358 357 358 358 359 359 359 359 359 358 355 354 353 351 353 354 359 361 360 359 359 359 359 359 359 359 356 357 355 354 355 360 361 361 361 361 360 360 360 358 356 354 356 354 356 357 355 357 359 357 356 356 356 356 356 355 355 355 354 354 354 354
356 357 359 360 361 362 359 356 357 357 357 357 356 356 357 357 357 357 358 358 358 358 357 358 357 358 358 357 358 358 358 357 356 353 353 355 357 359 359 360 360 362 361 360 360 360 361 361 360 359 357 357 353 358 361 360 361 361 361 360 360 360 358 356 359 357 356 356 357 358 356 358 355 355 354 353 354 352 352 352 352 351 352 352 352
358 359 359 359 360 360 360 359 355 355 357 357 358 357 358 357 357 357 358 358 358 357 357 357 358 358 357 357 357 357 356 355 355 353 351 354 360 360 360 360 359 359 359 360 359 361 362 361 360 360 359 358 360 360 359 360 361 361 361 360 360 360 361 357 358 358 355 355 353 355 355 357 355 354 353 353 352 353 352 351 351 351 353 352 353
358 358 358 358 359 360 358 358 357 355 356 356 356 358 358 358 358 357 358 358 358 358 358 358 358 357 357 356 356 357 357 356 355 353 350 357 361 361 360 360 360 360 361 361 361 362 362 362 362 361 359 360 359 359 359 359 359 360 359 358 358 360 363 358 359 358 357 356 355 355 355 356 353 353 353 352 352 350 351 352 352 352 352 353 353
356 358 357 358 358 359 358 361 361 357 355 355 356 357 357 357 357 358 357 358 358 358 358 358 358 357 356 355 356 358 358 357 355 352 357 361 361 361 361 361 361 361 361 361 362 362 361 361 361 362 361 362 361 362 362 362 360 360 359 359 358 359 363 362 360 359 358 359 357 355 354 356 354 354 353 353 352 351 352 353 352 352 352 350 351
355 356 357 358 359 359 359 359 359 356 355 353 353 357 357 357 357 357 357 358 358 357 358 358 356 357 356 355 356 356 353 351 354 360 362 362 362 361 361 362 361 361 361 360 360 359 360 360 360 360 360 362 364 361 361 361 361 361 361 361 363 360 359 361 360 360 358 357 357 355 356 355 354 354 355 353 353 353 352 352 352 352 353 354 354
352 354 356 357 358 359 359 358 359 358 355 354 353 355 358 357 357 358 357 357 358 358 358 358 355 354 354 355 354 354 355 354 361 363 362 363 361 361 361 361 361 361 360 360 360 360 360 361 360 361 363 365 362 360 360 361 361 360 362 364 360 357 358 361 360 361 360 358 360 354 356 356 355 355 355 354 354 354 353 354 354 354 354 354 354
350 352 354 357 358 359 359 358 358 358 356 356 356 357 357 357 358 359 360 359 358 357 359 358 352 354 354 356 356 358 360 366 364 362 363 363 362 362 362 363 362 361 361 362 362 362 363 363 363 363 363 364 362 357 358 360 365 364 366 364 358 359 362 361 361 361 359 359 359 358 355 356 356 356 355 355 354 355 355 355 354 354 354 355 356
349 350 352 354 357 359 359 358 358 358 357 358 357 357 355 357 357 358 360 358 359 361 361 360 361 359 356 359 363 364 364 363 363 363 364 363 361 362 363 363 363 363 363 363 364 363 361 362 362 363 362 362 360 359 357 355 357 363 364 360 359 360 363 361 360 360 359 358 358 358 356 357 356 357 358 357 356 356 355 355 355 356 355 356 357
347 349 350 353 356 358 358 358 359 359 357 357 358 357 358 357 357 358 360 358 358 359 359 360 360 361 362 365 362 362 362 364 364 364 363 363 364 365 364 363 362 362 362 359 358 359 360 360 362 363 363 362 359 356 355 357 357 360 361 359 360 361 361 360 359 360 360 358 356 358 357 356 357 358 357 357 357 356 357 356 356 356 355 356 358
349 351 352 353 355 358 358 359 359 359 358 356 357 358 359 358 357 358 359 358 358 359 359 359 359 360 361 362 361 361 362 363 365 364 363 364 362 362 361 361 362 361 360 364 363 365 364 362 360 360 360 360 356 359 360 360 362 360 360 359 359 362 359 361 359 359 360 362 362 356 358 357 357 358 358 357 357 357 358 359 359 359 359 358 358
350 348 350 352 355 357 358 359 359 359 358 357 357 358 359 358 359 359 359 360 359 359 359 359 359 361 361 360 361 362 363 363 364 364 363 363 360 359 359 360 361 363 366 363 363 365 363 360 362 360 360 360 359 362 362 364 360 360 361 363 362 363 361 361 358 360 361 360 362 357 358 357 357 359 359 359 359 359 359 358 359 360 360 359 360
348 348 352 353 354 356 359 359 358 359 359 361 359 359 359 359 358 358 358 358 359 358 358 358 360 361 361 362 358 359 359 359 360 361 360 360 358 358 358 361 362 362 364 363 363 364 363 362 362 364 363 359 358 362 364 361 364 358 357 360 362 358 361 359 359 360 360 362 360 357 358 358 358 360 361 361 361 360 360 360 360 360 361 361 361
348 348 351 353 355 355 358 358 358 358 360 359 359 358 359 357 358 359 359 358 359 358 358 359 360 360 362 362 361 360 357 356 357 357 356 359 358 360 361 360 360 360 364 364 361 361 362 364 366 365 364 364 359 361 360 360 361 362 354 356 360 359 361 358 360 361 359 360 362 361 358 359 359 360 362 363 362 362 361 361 361 362 361 362 362
346 348 351 352 354 356 357 356 358 358 358 357 356 357 358 359 358 357 358 360 359 359 359 360 359 360 360 361 361 356 357 355 355 355 358 357 359 361 360 360 363 363 364 361 363 364 363 362 365 364 365 366 363 360 363 360 362 359 356 352 352 357 357 358 360 358 357 358 359 359 359 360 361 362 363 363 364 364 364 364 365 365 365 365 365
347 349 350 352 354 356 355 355 356 358 357 356 357 357 358 357 358 358 359 360 359 360 359 357 359 359 359 362 360 358 356 354 355 357 357 358 360 361 362 361 361 363 364 362 363 364 364 364 365 365 362 364 363 365 366 358 353 353 356 352 350 349 357 356 358 357 359 359 360 358 359 360 361 363 363 364 364 365 365 365 365 366 366 366 367
348 349 350 352 355 355 355 356 357 359 358 356 357 358 358 358 359 359 359 359 360 361 360 359 358 359 361 365 364 363 357 355 356 359 359 360 362 362 360 362 361 363 366 362 366 367 366 365 363 362 364 366 365 366 366 361 358 355 354 351 349 353 353 357 355 355 353 358 358 358 357 358 359 361 363 366 367 366 366 367 367 367 368 368 368
347 348 351 354 354 354 354 356 357 359 359 356 359 357 358 358 360 359 358 360 361 359 359 359 360 360 361 363 364 362 363 361 362 361 360 361 360 359 360 362 364 365 367 365 364 366 366 365 366 369 369 370 367 365 365 360 356 353 355 350 351 351 352 354 352 353 354 357 358 358 358 355 357 357 358 362 366 368 369 368 368 369 370 371 371
349 349 352 353 352 353 354 356 357 358 358 356 357 358 358 358 359 359 361 359 360 360 358 358 360 362 363 364 365 365 366 363 363 363 362 360 360 361 359 363 365 367 367 365 365 367 364 363 365 368 370 368 363 361 360 357 354 358 354 350 351 350 353 355 356 354 352 354 356 355 357 358 358 357 359 359 361 364 368 369 370 370 371 371 371
348 351 352 352 353 354 354 355 357 357 358 357 358 357 359 359 360 359 362 361 360 358 358 360 361 361 363 364 364 365 365 366 365 365 363 360 361 361 361 362 365 368 366 367 363 364 362 363 363 364 365 363 358 360 355 351 351 353 352 351 352 353 354 350 351 353 354 354 356 358 357 359 359 360 359 362 361 362 363 365 367 368 369 370 371
351 349 351 352 353 354 354 354 356 357 358 358 357 359 359 358 359 359 360 361 361 360 358 360 361 361 362 362 364 364 366 366 367 366 362 362 358 359 361 361 367 368 364 366 365 364 364 364 364 363 363 362 359 358 355 352 348 349 352 354 351 351 353 351 354 354 354 358 360 355 359 358 358 361 361 359 366 363 361 361 363 365 367 369 372
350 352 352 352 352 353 355 354 355 356 358 358 359 360 359 359 359 360 361 362 360 360 359 359 360 360 362 363 366 366 366 368 367 367 362 362 359 360 360 367 369 368 366 366 367 364 366 365 366 365 362 356 360 354 356 355 350 348 353 355 354 354 353 354 353 351 351 357 357 358 360 361 362 362 363 362 364 365 363 362 364 365 366 368 370
350 352 353 352 352 353 355 353 354 355 357 356 359 360 361 359 360 359 358 361 358 359 361 361 361 361 361 360 365 366 367 368 369 368 364 361 360 361 360 365 369 367 366 363 364 366 366 359 369 368 367 364 356 349 352 354 349 350 352 352 353 358 355 358 354 354 353 357 357 354 355 358 363 362 367 366 369 367 366 362 363 365 368 370 369
352 351 353 353 352 353 354 354 355 356 358 358 359 359 359 360 359 360 362 359 357 357 359 362 362 361 362 363 367 367 369 369 370 369 367 363 363 362 364 368 369 367 366 363 365 366 368 366 365 368 365 367 357 352 348 348 345 345 350 349 356 354 357 359 360 360 358 356 358 357 356 355 356 355 357 360 357 364 365 365 364 365 365 368 368
351 351 353 354 353 354 355 356 356 355 357 359 360 360 359 360 358 359 359 359 360 359 360 361 362 363 360 367 370 368 370 370 370 370 368 364 362 363 365 369 368 365 366 362 363 367 368 366 365 365 368 365 362 359 355 354 346 346 346 349 353 360 359 356 360 356 355 352 352 355 354 360 357 357 361 361 358 364 368 368 366 367 365 365 365
351 352 354 354 354 355 355 356 357 355 358 358 358 356 356 355 353 355 355 357 358 359 361 360 363 363 363 365 369 369 370 370 370 369 369 366 362 364 366 367 367 365 365 361 363 365 366 366 366 362 364 363 364 361 357 354 350 350 352 351 354 355 357 360 358 356 358 356 356 358 353 353 357 357 353 355 358 354 362 368 370 363 363 361 364
352 352 353 353 353 353 355 355 356 357 356 355 356 353 353 354 354 352 352 354 357 358 358 360 361 360 366 365 370 365 370 370 369 368 366 366 367 366 367 367 367 367 367 365 366 366 368 368 368 370 361 361 358 359 355 354 351 348 353 348 352 355 354 358 354 352 351 351 353 354 355 356 354 355 359 357 359 355 356 365 364 366 366 370 368
350 351 351 352 353 353 354 354 357 357 356 356 356 355 356 354 353 353 351 353 356 356 356 360 359 361 369 370 368 367 370 370 370 369 368 366 364 363 365 367 366 367 368 368 367 367 368 366 366 364 364 358 357 357 354 353 347 342 342 344 346 350 355 351 348 347 349 351 353 355 357 350 347 350 354 359 360 358 353 357 366 360 367 368 366
349 349 351 352 353 353 355 357 357 357 357 357 358 357 357 358 355 356 354 353 357 358 356 360 361 360 363 366 369 370 369 369 370 370 368 365 364 365 365 367 367 367 366 364 365 366 366 364 366 362 357 358 359 359 363 360 343 348 351 347 341 342 347 348 348 349 347 350 350 348 350 347 347 351 355 355 356 360 353 357 361 365 367 369 366
349 349 350 351 352 354 356 357 358 358 359 359 359 358 358 360 361 360 360 357 357 359 361 362 361 361 359 362 367 369 368 365 367 367 367 367 367 365 365 366 368 370 367 365 365 364 365 364 362 362 363 349 350 354 359 359 355 348 341 343 343 340 334 342 346 347 347 349 348 347 349 348 349 352 356 354 350 356 361 363 359 365 369 369 368
348 348 349 349 349 352 355 357 358 358 359 360 361 361 361 359 360 360 360 359 359 358 356 356 359 361 359 361 361 367 367 366 367 368 366 368 369 368 368 367 367 368 366 364 364 361 363 364 367 366 361 355 349 352 358 358 357 359 349 348 341 343 338 341 339 345 344 344 346 348 352 349 348 353 351 352 355 356 353 353 364 366 369 369 369
347 349 349 349 350 351 355 358 359 359 358 360 363 361 360 358 357 355 353 353 353 352 351 352 353 355 354 359 362 363 364 366 367 368 369 368 368 368 368 366 364 366 366 364 364 363 363 362 365 365 360 362 362 353 350 359 359 364 359 354 352 342 342 345 343 337 353 347 347 346 349 349 350 350 355 352 351 353 358 355 359 360 363 364 368
348 349 349 350 351 353 356 357 359 359 359 362 362 361 360 359 357 354 353 353 351 353 358 356 354 356 359 360 362 364 367 364 365 367 368 370 371 370 369 367 366 365 367 367 364 360 359 361 367 366 363 366 366 358 355 351 358 359 355 354 356 356 351 345 341 344 340 347 347 345 345 348 349 348 349 350 351 353 356 359 355 356 360 366 368
348 348 348 349 351 355 356 357 359 360 360 362 361 362 360 359 358 356 356 354 349 353 358 359 359 363 361 361 361 362 366 366 365 368 368 368 370 370 371 369 367 365 366 365 364 363 363 366 369 369 370 369 366 360 358 355 352 353 357 353 353 355 357 353 350 344 343 341 342 347 347 349 349 349 350 351 351 353 354 358 356 356 362 365 368
347 347 348 350 352 355 357 358 359 361 362 363 362 361 361 360 358 356 356 357 356 355 360 361 361 363 360 363 364 362 365 368 368 366 368 368 368 370 371 368 367 366 366 365 364 363 362 363 367 368 366 367 366 364 364 362 355 352 357 357 354 352 351 352 353 353 346 341 339 341 344 350 351 351 353 353 354 355 355 357 359 358 365 368 370
348 349 349 351 352 355 356 358 358 360 362 363 362 362 361 361 359 358 357 358 358 360 358 359 363 364 362 363 365 365 361 363 366 368 369 368 368 370 368 366 365 364 365 366 365 365 365 365 365 363 366 365 367 365 362 362 361 360 358 359 358 355 353 350 347 347 347 348 341 341 343 343 343 348 354 352 354 355 357 357 357 358 362 366 368
348 348 349 350 351 353 356 356 359 360 363 363 363 361 361 361 359 360 359 359 359 359 358 359 362 363 362 360 362 363 364 362 362 366 366 365 368 369 367 366 366 367 367 366 365 362 361 360 361 367 368 365 363 365 363 364 363 363 358 360 357 349 349 346 348 349 346 344 343 342 342 345 344 344 351 354 357 355 357 357 357 358 364 364 369
Wind_Speed
5 7 6 8 8 8 9 9 9 8 6 7 7 6 4 4 4 4 3 9 5 11 12 11 13 12 13 13 13 13 13 13 13 13 13 14 14 13 14 14 14 14 14 14 14 15 15 15 16 16 16 16 15 15 13 12 11 13 14 14 14 14 14 14 13 14 14 14 14 13 13 13 12 13 13 13 13 13 12 10 10 9 9 12 13
8 7 6 7 8 10 12 8 8 4 4 8 7 9 3 5 7 4 8 8 7 11 12 12 13 14 13 13 13 13 13 13 13 13 13 13 15 14 14 15 15 14 14 13 14 15 16 16 17 16 17 17 16 15 14 12 12 12 12 14 14 14 14 14 14 14 13 14 14 14 14 14 13 14 14 13 13 13 11 9 8 7 8 12 13
7 6 5 7 7 9 13 15 15 10 12 12 15 20 15 15 15 15 13 10 11 12 12 12 13 14 14 14 14 12 13 13 13 13 12 13 14 14 14 15 15 14 14 14 14 15 16 16 15 16 16 17 16 16 14 13 11 11 11 13 13 13 13 13 14 14 14 14 14 15 14 15 14 15 14 14 14 13 13 11 11 10 10 12 12
9 6 6 6 6 4 8 9 13 13 12 14 14 16 19 15 16 11 9 10 10 11 13 12 13 13 14 15 13 12 11 12 13 12 12 13 14 13 14 14 14 14 14 14 15 15 15 16 17 14 16 16 15 14 14 13 12 11 11 12 12 12 13 12 13 14 13 12 12 9 8 10 12 14 14 14 14 14 13 13 13 13 13 12 13
9 7 6 6 6 5 6 6 6 9 8 9 10 10 10 11 11 9 9 9 9 11 12 11 12 13 12 14 14 12 10 11 12 12 11 13 10 13 14 14 15 15 14 14 15 16 16 16 15 14 14 15 14 13 13 11 11 12 11 11 12 12 12 12 13 14 13 12 10 8 8 10 9 13 13 13 13 13 13 12 12 11 12 12 12
8 7 7 6 5 5 4 5 5 5 8 9 9 10 10 11 12 10 9 10 10 10 11 11 11 11 12 13 12 13 13 12 11 11 18 9 8 9 11 13 14 14 14 15 15 16 16 17 16 13 11 13 13 12 13 12 12 11 12 12 12 13 13 12 12 13 12 10 9 7 8 9 9 9 14 13 13 13 12 11 11 11 11 11 12
8 6 6 6 4 4 4 4 7 7 9 8 9 10 12 12 12 9 9 8 9 10 10 11 10 11 11 11 12 13 13 14 12 12 14 13 8 7 6 10 14 14 15 15 15 16 16 18 18 13 12 11 11 10 11 10 11 10 11 12 12 13 12 12 12 11 9 6 6 7 7 8 8 7 12 12 11 11 11 10 10 10 9 8 8
6 5 5 5 4 6 6 7 6 7 7 8 8 11 13 12 11 9 9 8 8 7 9 11 10 11 11 10 10 12 13 14 13 12 12 12 9 6 3 7 9 15 15 15 15 15 15 16 19 17 13 8 8 9 9 9 9 11 11 12 13 13 13 12 12 11 9 7 6 6 6 7 8 7 10 11 11 10 10 10 9 9 9 9 8
7 6 6 5 6 8 6 6 6 6 7 8 10 12 11 11 10 9 10 9 9 8 8 9 11 11 11 10 11 12 12 13 13 12 10 10 10 8 3 1 10 13 14 15 15 14 14 14 16 18 17 12 7 8 6 5 10 11 11 12 12 12 12 11 10 9 7 6 7 7 6 6 7 8 10 10 10 9 9 9 10 10 9 8 7
6 6 5 5 6 7 7 6 5 6 8 11 11 12 11 10 11 10 10 10 10 9 9 9 10 11 11 10 11 12 13 14 13 11 11 9 8 12 3 3 6 12 14 14 15 14 14 14 14 15 15 16 12 8 4 2 9 10 12 12 12 11 11 10 10 8 6 6 7 7 6 5 6 7 9 9 9 8 7 7 8 8 8 8 9
6 5 4 4 5 6 6 6 5 6 10 10 10 10 9 9 8 9 10 10 10 10 10 9 9 10 11 11 12 11 11 13 13 11 10 10 8 11 6 4 5 11 14 14 13 15 14 14 14 15 14 15 13 9 6 3 9 10 11 11 11 11 10 9 7 5 6 5 5 5 7 4 5 6 8 8 8 8 8 8 8 8 8 8 7
6 5 4 4 5 5 6 7 5 5 10 10 9 9 7 8 7 9 10 10 11 10 10 10 9 10 11 10 12 11 11 12 13 12 12 12 8 8 1 7 6 12 14 14 13 14 14 14 14 14 15 13 10 6 5 5 9 9 10 10 10 10 9 6 4 5 5 5 5 4 5 5 6 7 7 8 8 7 7 7 7 7 7 6 7
6 5 4 5 5 7 7 6 6 6 11 11 8 8 8 6 5 9 9 9 10 10 9 9 8 10 10 10 11 12 12 11 12 13 14 12 11 4 8 7 9 13 14 14 13 12 13 14 14 14 14 12 9 4 5 7 9 9 9 9 8 9 8 5 4 4 4 4 4 4 4 4 6 6 6 6 6 6 6 5 6 6 5 5 5
6 5 4 5 6 5 5 6 5 6 10 11 8 8 7 5 5 9 9 8 9 10 11 9 9 10 10 11 10 10 12 11 12 12 11 12 13 7 9 8 11 13 13 13 12 11 11 12 14 14 12 12 9 6 7 5 8 8 8 8 7 7 7 4 4 3 4 3 3 3 3 3 5 4 5 5 4 5 4 4 4 4 4 4 4
6 5 5 6 5 5 8 10 8 10 11 8 8 8 7 6 4 7 9 8 9 9 10 10 10 9 9 11 10 10 10 11 11 10 9 9 9 14 11 10 12 12 12 12 10 10 9 10 11 13 11 10 7 4 6 7 7 7 7 7 7 6 2 3 2 3 3 2 2 2 3 2 5 1 4 3 4 4 4 4 3 3 3 3 3
6 5 5 6 6 6 8 7 7 8 9 6 7 9 8 6 5 6 9 9 9 9 10 11 10 10 10 10 10 10 11 10 11 7 4 5 11 11 10 11 11 11 10 9 9 8 7 9 11 12 9 8 11 6 7 7 8 7 6 6 6 5 3 2 3 2 2 1 2 1 1 3 3 1 1 2 2 2 3 3 3 3 4 4 4
6 6 6 6 7 7 7 7 6 8 9 8 8 10 9 9 8 7 8 9 9 9 10 10 11 11 11 10 10 11 11 10 9 8 5 4 11 10 10 10 10 11 11 11 10 10 11 10 9 9 10 9 5 7 6 7 7 7 6 5 4 4 4 2 2 2 2 2 1 0 1 0 4 3 1 1 1 3 3 3 1 1 2 3 3
6 7 6 7 7 7 7 7 5 6 7 7 7 9 10 9 8 8 8 9 9 9 10 10 10 11 11 10 11 11 11 9 10 11 5 5 11 10 10 10 10 11 10 10 10 10 10 10 9 8 6 6 5 5 6 6 6 6 6 5 4 5 5 3 3 2 1 1 0 1 1 4 1 1 1 1 1 0 1 0 0 1 2 3 2
6 6 7 7 7 7 8 6 5 6 8 6 4 7 9 8 9 8 7 9 9 9 10 10 10 11 12 10 11 10 9 9 10 9 11 10 10 10 10 10 10 10 10 10 10 10 9 9 7 7 6 6 5 6 6 6 6 5 4 4 4 5 6 2 2 1 0 1 0 1 0 3 2 2 1 1 1 1 2 3 3 3 3 2 2
5 6 6 6 6 7 6 5 5 5 7 6 5 6 9 10 9 9 7 9 9 9 10 11 11 11 11 9 10 8 9 4 8 8 11 10 10 9 10 10 10 10 10 9 9 8 7 7 6 6 6 5 6 6 6 6 6 5 5 6 6 3 1 2 2 1 1 1 1 1 4 2 1 2 2 1 2 2 1 2 2 2 2 3 4
4 5 5 5 7 7 7 5 5 6 8 8 6 4 7 10 9 10 8 10 9 9 10 13 12 10 9 9 9 7 3 8 6 7 9 8 10 10 11 11 10 9 8 8 7 6 6 6 6 5 5 6 5 3 4 5 5 5 5 5 3 3 3 3 2 0 1 0 1 0 5 2 2 2 3 2 3 3 2 2 3 3 3 4 4
5 5 5 5 6 6 7 6 4 6 7 7 6 6 6 7 7 7 7 8 9 10 8 9 9 7 7 6 4 7 5 3 5 7 7 8 9 11 10 10 9 8 7 6 6 6 5 5 5 5 4 4 2 2 2 2 2 3 4 1 3 3 3 3 1 0 1 1 1 3 5 3 3 3 4 3 4 4 4 4 4 3 4 5 5
5 5 4 5 6 6 6 6 6 6 8 8 6 6 6 5 7 6 7 9 9 8 8 9 9 9 9 8 6 5 5 5 6 6 6 10 9 10 10 9 8 7 6 5 5 5 5 5 4 4 3 1 1 2 2 3 2 1 2 2 3 3 2 1 1 0 0 0 1 6 5 4 3 5 5 5 5 5 5 4 5 6 6 6 7
5 4 5 4 5 6 7 7 6 6 6 6 6 7 6 6 6 6 6 7 7 7 8 8 7 7 6 5 5 6 5 5 7 7 6 5 6 7 8 6 5 5 4 1 1 4 1 1 1 2 1 2 3 3 3 3 3 4 3 2 2 3 3 2 1 0 0 1 1 6 5 5 5 6 5 5 5 5 5 5 5 5 4 6 7
5 5 4 5 6 7 7 7 6 6 6 6 7 6 6 6 6 6 6 6 6 6 6 6 7 6 6 5 6 5 5 4 4 4 4 4 3 3 3 2 2 3 1 3 3 3 2 4 3 2 3 2 3 3 3 4 3 3 3 3 3 3 3 2 2 1 1 0 0 4 5 6 6 6 6 6 5 5 6 6 7 7 7 6 6
6 5 5 6 6 6 7 7 7 6 6 6 6 7 7 6 5 5 6 6 6 6 6 5 5 5 5 5 5 5 4 4 4 4 3 2 2 2 2 2 2 3 3 4 4 4 4 4 3 3 4 3 3 3 4 3 3 3 2 2 2 2 3 2 2 1 1 0 1 4 5 6 7 7 7 7 6 6 6 6 7 8 8 8 8
5 6 6 6 7 7 8 7 7 7 7 6 6 6 6 6 6 6 6 6 5 5 5 5 5 4 4 3 4 4 4 3 3 3 3 2 2 2 2 2 4 4 4 4 4 4 3 3 3 3 3 4 4 3 3 3 2 3 3 2 2 3 2 2 2 1 0 0 1 4 5 6 7 8 7 7 7 7 7 8 8 8 9 9 9
5 7 6 6 6 8 8 8 7 8 6 7 7 6 6 6 7 6 6 6 5 5 5 5 5 4 3 3 3 3 3 3 3 2 2 2 2 2 2 3 4 4 4 3 3 3 3 3 3 3 3 4 4 4 3 2 1 2 2 3 2 3 2 3 2 1 1 0 1 3 5 6 7 8 8 7 7 8 8 8 8 9 9 9 9
6 7 6 6 7 7 8 8 9 8 7 7 7 6 6 6 6 6 6 6 5 5 5 5 4 3 3 3 2 3 2 2 2 3 1 2 2 3 3 4 4 4 3 3 3 3 3 3 3 3 3 4 4 4 3 2 2 2 2 3 3 3 3 2 2 1 1 1 1 1 4 5 7 7 7 8 8 8 9 10 10 11 11 10 9
6 7 6 6 6 7 8 8 8 8 8 7 6 6 6 6 6 6 6 5 5 5 4 4 3 3 3 2 2 2 2 2 2 2 2 2 3 3 4 4 4 3 3 3 3 3 3 3 3 4 5 4 5 4 3 3 3 3 2 3 4 4 3 2 1 1 1 0 0 0 3 4 6 6 7 8 8 9 10 10 11 11 11 11 10
7 7 6 6 6 7 8 8 8 8 7 8 7 7 6 6 5 5 5 5 5 4 3 3 3 3 3 2 1 1 1 2 2 2 1 2 3 3 4 3 3 4 3 4 3 4 4 4 4 5 4 5 4 3 3 3 3 2 2 3 3 2 3 2 1 1 1 1 1 1 0 3 4 6 7 8 9 9 10 11 11 11 11 11 11
8 8 6 6 7 7 8 8 8 7 7 8 7 7 6 6 5 4 5 4 4 3 3 3 2 2 2 1 1 1 1 2 2 2 2 3 3 4 3 3 4 3 4 4 4 4 4 4 3 3 4 3 3 2 2 2 2 2 2 2 2 2 2 2 2 3 2 2 1 1 1 1 3 5 6 7 8 9 10 11 11 12 12 11 11
6 7 7 7 8 7 7 7 7 7 7 7 7 6 6 5 5 5 4 3 3 2 3 2 2 2 1 0 1 0 1 1 1 2 3 3 3 4 3 3 3 4 4 5 4 4 4 4 4 3 3 3 3 2 1 1 1 2 2 2 2 2 2 1 1 1 2 2 0 1 2 2 3 3 6 7 8 9 10 10 11 11 11 11 11
7 7 8 8 6 6 6 6 7 8 7 6 6 5 5 5 4 4 4 3 3 3 3 2 2 1 1 1 1 1 1 1 2 2 2 3 3 3 3 3 3 4 4 4 4 4 4 5 5 5 4 3 3 3 2 2 2 1 1 2 1 2 2 2 2 2 2 2 2 2 2 2 2 3 3 4 7 8 9 10 10 10 10 10 11
7 8 9 9 8 7 6 6 7 8 7 7 6 5 4 5 4 4 4 3 3 2 2 2 2 1 1 1 2 2 2 2 2 2 2 2 2 3 3 3 4 4 4 3 4 4 4 5 5 5 5 3 3 2 2 2 2 2 1 1 2 1 2 2 2 2 2 2 2 2 2 3 3 3 3 4 4 7 8 9 9 10 10 10 10
8 8 9 9 9 8 8 8 9 9 8 7 6 5 4 4 4 3 3 3 2 2 2 2 2 2 2 2 2 2 2 2 1 1 2 2 2 2 3 3 3 3 3 3 3 4 4 4 4 4 4 3 3 2 1 1 2 2 2 1 0 1 1 1 2 2 2 2 3 3 3 3 3 3 3 4 4 4 5 7 8 9 10 10 10
8 8 9 9 9 9 8 9 10 9 8 7 6 5 4 4 4 4 4 3 2 2 2 1 2 2 1 1 2 2 2 1 1 1 1 1 1 1 2 3 3 3 3 3 3 3 4 5 3 3 3 2 2 2 2 1 1 2 2 2 2 1 2 1 2 2 1 3 3 3 3 3 3 4 3 3 3 3 4 6 7 8 9 9 9
7 8 8 8 9 9 8 8 8 8 7 6 6 5 4 3 4 3 3 2 2 2 2 2 1 1 2 1 1 2 1 1 1 1 0 1 1 2 3 3 3 3 2 3 3 3 3 4 4 3 3 2 2 2 2 2 2 2 3 4 2 1 1 0 1 2 2 3 3 3 3 3 3 3 3 3 3 3 3 3 6 8 9 8 8
7 8 8 7 7 7 6 7 7 7 7 6 5 4 4 3 3 4 3 2 1 1 1 2 1 1 2 2 2 1 1 1 1 2 1 1 1 2 2 3 2 2 2 2 3 4 4 5 4 3 2 2 2 2 3 2 2 2 2 3 2 2 1 1 1 1 2 3 4 4 3 2 3 2 3 3 2 3 2 3 3 3 3 5 6
7 7 8 8 7 7 6 6 6 7 6 6 5 5 5 5 5 4 3 2 1 2 1 2 1 1 2 3 2 2 2 2 2 2 2 1 1 1 2 2 2 2 3 4 4 4 5 6 4 4 3 1 2 1 1 1 1 1 2 1 2 2 1 1 2 2 2 3 2 3 3 2 2 3 3 3 2 3 2 2 3 4 4 3 4
8 8 8 8 8 8 7 7 6 7 6 6 6 6 6 5 3 4 4 4 2 2 2 2 2 2 2 3 3 3 3 2 2 2 2 1 1 0 1 2 2 2 2 3 4 5 4 4 3 1 3 2 3 2 2 2 1 0 0 2 1 1 2 2 3 2 2 2 2 2 2 3 2 2 2 2 3 3 3 3 3 3 4 4 4
9 9 10 9 8 9 8 7 6 6 7 6 5 5 5 5 5 4 4 3 3 3 3 3 3 2 2 3 3 2 3 2 2 2 2 1 1 1 1 1 2 2 2 2 3 3 4 4 4 1 1 4 3 4 2 2 0 3 3 3 2 2 1 3 3 2 2 2 2 3 2 3 2 2 2 2 3 3 4 3 3 4 4 4 5
11 11 10 9 8 8 7 7 6 6 6 6 5 5 4 4 4 3 4 3 2 1 2 2 2 2 2 2 2 2 2 2 2 2 1 1 1 0 0 1 1 2 3 3 3 4 4 5 5 4 2 2 2 3 2 3 3 1 1 2 3 3 1 1 1 2 2 3 3 2 2 2 3 3 2 4 4 4 5 4 4 4 4 4 5
10 10 10 10 8 7 7 7 6 6 5 5 5 4 4 4 2 1 1 1 2 2 2 2 2 2 3 2 2 2 2 1 1 1 1 1 1 0 1 1 1 2 2 3 3 3 3 3 4 4 3 2 3 4 4 3 3 1 2 3 2 2 3 2 4 2 1 2 3 2 2 2 3 3 2 3 4 4 3 3 3 3 4 4 4
11 11 11 10 7 9 8 7 6 6 5 6 6 4 4 4 3 3 2 2 2 3 3 3 3 3 3 3 3 3 2 1 1 1 0 1 0 0 1 1 1 2 2 2 2 3 3 3 3 3 4 4 3 3 4 3 4 2 1 1 1 1 3 3 5 1 3 2 3 3 3 3 4 3 3 4 4 3 4 3 2 2 3 3 3
11 11 11 11 10 9 9 7 6 5 6 7 6 5 5 4 4 4 4 3 3 4 4 5 5 5 4 3 3 3 3 2 1 1 1 0 0 1 1 2 2 1 2 2 2 2 1 3 3 3 3 3 2 2 2 3 3 2 1 0 1 3 2 3 3 2 2 1 1 1 2 4 3 2 3 3 4 4 3 3 3 3 3 4 3
11 11 11 11 11 9 8 8 6 5 6 6 7 6 5 5 6 6 5 4 4 4 3 3 4 4 3 3 3 3 3 3 2 2 1 1 0 1 1 2 2 1 1 2 2 2 2 2 2 2 3 3 3 2 2 2 1 1 2 1 1 2 1 2 3 3 2 1 2 3 2 4 3 2 3 4 4 3 3 3 4 4 3 3 4
12 11 11 11 11 9 9 8 6 6 6 6 7 6 6 6 6 6 5 5 6 5 5 4 3 2 3 3 2 2 3 3 2 2 2 2 1 1 1 1 2 1 2 2 2 2 2 1 2 2 2 2 3 3 3 3 1 2 3 2 1 1 1 2 2 3 3 4 2 1 1 4 3 2 3 4 4 4 4 3 3 3 3 4 4
12 11 11 11 10 9 9 8 7 7 7 8 7 7 6 6 6 6 5 4 5 4 3 3 3 3 4 3 3 2 3 3 3 3 2 2 2 1 1 1 2 2 2 2 2 2 2 2 1 0 1 2 2 2 2 2 2 2 2 2 2 1 0 1 0 1 2 4 4 3 4 4 2 2 4 5 4 4 3 3 3 4 4 4 4
12 12 11 10 10 9 9 9 9 7 7 8 8 8 8 7 6 6 6 5 4 3 2 3 3 3 4 3 3 3 3 3 3 3 3 3 3 2 2 2 2 1 2 3 3 3 3 2 1 1 1 2 1 2 2 2 2 2 2 1 2 2 1 1 1 2 1 1 4 6 5 5 5 3 3 5 5 4 3 3 2 5 5 5 5
11 12 11 11 11 10 10 10 10 7 8 8 9 9 8 7 7 7 8 7 6 5 4 4 3 3 4 4 4 3 3 3 2 2 3 3 3 3 3 2 2 2 2 3 3 3 3 2 2 1 1 2 1 2 1 1 1 2 1 1 2 2 2 2 3 3 4 3 4 5 4 4 5 4 4 5 4 3 3 3 4 5 6 6 5
Wind_Direction
137 135 130 128 123 117 99 82 67 11 80 89 95 72 24 55 88 83 128 170 150 95 96 107 109 112 116 113 109 109 108 109 107 106 106 107 105 105 108 108 103 102 101 97 93 92 95 97 91 88 83 82 87 90 85 85 87 89 96 97 96 97 97 97 98 95 99 101 99 98 97 94 94 93 93 91 88 85 85 85 94 92 89 89 88
140 133 127 125 124 123 112 103 98 73 131 143 128 103 150 167 136 152 162 170 131 113 115 115 115 112 108 107 107 107 108 109 109 107 108 107 110 110 109 112 109 106 102 99 96 91 90 89 88 88 89 90 90 86 86 86 85 90 92 94 94 95 95 94 97 98 96 93 95 98 96 99 100 97 95 91 88 89 85 80 77 89 81 87 89
123 129 126 125 120 127 137 143 139 173 170 148 157 159 181 186 149 175 172 153 123 115 111 109 106 107 106 104 102 102 107 110 108 107 109 109 108 112 114 112 110 104 101 98 96 96 95 88 87 89 91 89 88 91 94 93 90 88 87 87 88 91 94 98 98 98 94 93 96 100 98 93 92 96 97 98 97 91 86 81 76 77 88 90 93
130 137 131 126 116 133 132 135 142 157 147 152 161 165 171 156 151 147 139 118 112 109 106 96 97 100 101 103 106 105 100 106 107 108 105 108 110 111 111 112 111 106 104 100 99 100 93 89 88 85 86 86 85 89 93 93 94 92 92 90 93 94 95 96 98 97 95 97 97 100 96 92 93 92 94 92 90 86 82 80 80 83 90 89 85
131 136 132 134 130 147 140 146 146 141 151 142 146 153 131 123 105 91 73 77 93 102 95 81 86 98 103 104 105 100 92 95 101 104 98 82 106 113 116 115 113 111 110 107 103 102 102 97 87 77 79 82 84 90 95 101 103 99 98 98 96 96 95 90 94 93 92 90 91 91 89 97 95 94 93 91 87 86 87 86 85 87 87 84 82
133 133 136 131 132 137 161 167 165 172 133 141 144 121 109 99 88 79 75 76 77 87 98 98 93 95 101 100 104 106 106 98 84 86 89 83 70 102 113 116 116 116 113 111 108 107 105 100 94 88 89 95 94 95 92 92 94 99 99 100 100 95 94 95 92 93 90 89 91 90 93 93 98 95 94 93 89 86 85 84 82 81 82 83 84
125 126 133 133 135 139 184 205 162 143 132 122 110 105 96 96 96 94 89 85 90 82 95 97 96 96 91 94 98 96 92 91 82 72 84 106 90 66 95 120 125 122 115 112 109 104 102 101 95 78 61 62 82 80 89 95 99 98 104 102 96 92 91 90 88 83 80 92 83 87 89 90 91 90 94 93 92 90 91 90 90 88 84 79 78
122 131 137 141 145 150 190 149 136 121 104 102 100 98 104 106 105 103 105 107 91 91 90 96 101 96 99 100 96 94 93 95 92 87 84 91 88 89 120 125 121 115 118 112 105 103 101 102 106 106 104 80 61 80 84 99 111 108 102 95 94 96 96 93 89 83 81 82 78 76 82 88 92 94 95 96 97 98 97 99 98 95 91 90 98
130 133 136 141 135 130 145 121 116 110 102 93 86 89 97 99 102 110 109 112 110 107 92 95 96 96 102 106 101 93 96 95 91 96 94 98 106 99 52 72 121 117 112 113 109 105 100 100 103 113 118 110 96 78 83 91 100 101 101 95 93 93 92 91 90 92 86 83 85 83 81 86 91 95 96 99 102 103 107 111 109 104 96 92 88
129 128 128 128 118 123 121 120 112 106 97 81 79 88 92 102 111 113 110 107 114 124 114 103 100 106 105 106 99 99 96 96 94 94 98 97 103 115 138 205 130 118 113 109 109 104 100 98 101 98 101 105 96 81 86 132 96 95 96 99 99 98 97 94 92 82 88 88 87 84 71 62 89 88 97 102 103 102 93 67 64 75 86 88 82
127 124 114 116 108 123 119 114 108 112 101 97 98 93 94 97 111 114 114 110 116 117 115 108 104 105 105 105 99 95 96 97 103 102 100 87 77 106 152 178 144 114 107 107 106 104 101 99 88 83 84 94 113 135 134 147 105 99 93 96 101 100 101 102 99 91 86 90 89 98 100 83 82 89 103 102 101 99 94 93 95 95 93 92 94
125 122 118 102 117 108 108 107 115 118 107 102 99 93 99 116 113 109 105 111 109 111 110 109 111 109 106 105 106 104 102 103 104 104 96 88 74 77 114 166 135 100 97 99 100 98 101 97 88 84 80 75 75 87 138 132 102 96 94 94 98 101 101 97 89 94 97 91 79 80 96 99 90 94 99 97 96 102 110 107 102 100 99 100 93
129 123 121 123 120 117 121 123 125 116 108 105 101 105 105 104 114 107 110 109 107 106 106 111 114 110 109 114 111 116 111 106 103 98 95 104 94 85 215 156 107 90 89 90 92 87 88 92 89 84 92 92 76 344 122 112 99 97 97 100 102 105 106 97 99 93 88 86 88 87 82 72 79 74 95 104 106 100 94 94 97 92 87 85 85
129 122 124 110 88 96 100 97 98 78 98 108 112 105 103 113 123 110 112 107 111 116 121 120 120 114 115 111 109 109 113 109 97 97 110 113 129 118 250 125 97 91 90 88 85 83 83 86 88 83 79 82 68 250 105 104 106 100 98 102 106 109 114 107 89 91 91 91 87 80 75 77 82 56 99 98 101 100 100 98 97 96 91 84 77
121 119 108 96 93 77 72 60 42 54 73 103 113 111 119 120 117 114 118 119 115 121 117 113 117 107 103 106 106 102 103 101 99 108 131 137 131 173 191 106 100 100 100 101 100 98 104 110 104 103 106 116 129 178 121 100 99 103 97 95 102 110 113 73 76 85 87 84 89 95 88 89 84 100 95 100 109 109 105 101 98 109 121 105 81
120 121 112 93 88 87 83 83 77 90 86 99 119 115 116 126 122 120 121 123 126 121 117 116 118 116 114 109 108 106 99 95 95 106 90 158 167 122 106 106 106 107 109 120 127 129 123 110 111 118 119 125 166 169 90 93 92 90 87 87 93 111 117 54 75 76 87 89 94 103 98 71 56 16 142 139 125 129 98 79 50 24 43 27 30
125 116 108 97 95 88 89 88 103 101 108 102 117 122 123 122 127 131 129 123 124 120 118 121 121 116 113 110 111 107 103 99 105 94 71 221 100 98 93 91 91 95 96 96 96 92 83 79 79 85 116 148 110 83 82 83 87 85 82 76 73 100 146 195 71 55 48 80 45 64 66 8 86 332 308 36 27 31 47 53 50 51 55 39 28
120 116 108 100 91 89 92 106 119 117 106 95 104 117 119 122 130 133 128 120 122 122 117 117 114 111 114 113 111 112 116 127 119 105 156 167 96 99 98 91 86 82 80 79 75 75 74 71 68 74 81 86 84 73 70 73 84 79 71 60 42 68 147 217 30 35 65 138 156 124 289 65 57 312 328 31 7 18 52 257 46 9 47 26 2
108 102 97 95 92 90 98 100 104 110 108 100 98 108 112 121 125 119 121 120 117 116 116 116 115 117 111 112 116 114 114 106 100 167 175 101 102 98 91 84 81 76 74 72 68 64 63 63 62 63 61 64 64 59 56 58 68 68 51 38 33 47 143 230 351 9 51 304 167 229 106 62 255 266 294 227 285 10 356 348 350 355 349 350 358
101 103 99 94 95 96 96 101 108 109 103 112 104 106 118 120 121 123 128 122 119 121 120 115 118 114 115 117 109 105 98 76 176 147 99 98 89 84 84 81 75 72 69 67 65 62 62 62 61 54 59 57 53 48 46 47 48 43 30 20 19 336 300 347 339 310 309 23 274 253 99 216 240 275 302 326 294 302 314 294 325 323 312 318 318
111 107 106 102 100 103 100 100 107 105 105 113 113 114 115 113 119 117 123 117 118 118 105 99 103 109 111 117 113 92 143 165 163 102 98 91 86 83 80 78 74 70 67 67 67 64 58 59 58 53 51 46 44 58 55 44 40 32 19 22 332 309 0 336 323 293 258 247 197 207 115 236 256 254 268 271 280 284 302 289 296 293 303 303 308
133 120 110 112 107 102 107 112 112 110 111 111 113 111 104 105 113 121 120 116 116 109 106 107 116 114 126 115 132 147 167 126 102 95 87 88 87 80 79 77 76 75 76 72 66 62 55 54 51 49 41 35 22 10 32 75 93 24 14 336 293 10 350 339 318 267 240 212 254 105 162 208 252 260 252 258 262 267 277 284 298 303 307 311 305
133 122 115 112 109 109 114 113 111 120 120 111 112 113 108 106 110 125 122 117 117 117 122 133 135 140 147 152 156 149 134 108 89 75 76 75 75 73 71 70 71 67 63 58 52 49 41 27 29 25 3 334 351 20 351 350 356 170 230 288 355 357 358 352 344 269 207 24 279 118 185 205 245 258 258 254 267 270 277 294 314 321 322 310 305
134 131 121 114 120 116 114 114 116 115 112 110 113 111 114 122 117 119 116 111 119 128 126 126 133 143 143 145 137 122 116 104 88 81 91 87 80 73 60 64 70 62 43 84 77 65 327 204 175 287 248 17 11 347 359 339 333 339 338 330 354 356 357 18 20 39 314 145 326 137 192 209 232 255 264 266 269 280 300 315 318 311 307 295 299
138 131 129 126 123 120 119 118 120 116 115 116 117 122 127 121 123 125 117 115 121 122 118 121 130 137 136 135 127 121 108 99 85 79 67 67 62 64 88 83 85 75 27 54 40 33 22 31 33 16 17 357 359 356 345 344 337 337 341 344 342 358 5 40 32 17 17 182 82 162 203 215 235 254 265 278 292 299 305 309 305 305 303 303 298
136 142 130 129 125 120 117 119 119 120 122 122 121 123 125 123 129 127 122 124 119 116 116 119 126 132 136 120 114 106 91 79 72 64 68 58 65 67 66 69 61 49 21 32 30 23 21 27 19 8 6 358 355 349 347 331 335 332 338 347 357 356 14 29 37 44 33 269 143 175 213 226 238 255 270 282 290 294 299 297 294 295 301 304 305
149 138 138 126 126 123 118 124 122 126 125 124 126 126 120 122 123 122 117 111 110 111 112 115 116 119 105 97 100 88 82 77 75 69 63 53 67 56 54 38 35 29 21 17 23 24 19 16 6 358 347 342 349 348 325 346 338 323 355 358 6 5 16 29 39 59 74 257 132 184 220 230 239 252 267 276 281 289 296 300 299 299 298 298 302
146 143 137 131 134 129 128 131 124 126 130 131 126 122 121 123 118 121 113 114 117 110 107 103 106 99 81 70 60 76 83 89 86 88 71 58 55 38 30 28 26 28 16 16 22 24 18 8 351 336 336 337 336 345 351 355 1 349 351 17 5 21 21 24 43 39 30 52 299 190 222 231 242 251 261 273 281 283 288 294 298 298 296 299 299
146 147 137 136 132 130 134 129 126 128 128 127 122 120 119 114 117 118 116 118 108 101 97 104 99 89 80 73 69 84 86 93 89 80 61 53 31 16 14 22 19 22 12 40 25 11 5 354 341 335 339 335 335 355 349 9 4 36 2 15 19 35 33 33 39 42 18 352 308 141 211 236 250 256 266 275 283 285 286 287 289 292 294 295 298
149 145 144 134 136 135 134 128 129 126 126 125 123 125 120 118 116 112 110 112 95 92 102 105 99 101 98 78 63 57 77 84 86 59 39 36 18 11 14 17 23 25 22 34 23 3 358 341 345 341 347 341 343 357 339 356 7 20 17 8 22 27 40 37 47 37 30 336 324 65 193 245 256 266 273 278 281 285 287 288 289 290 291 291 293
154 151 145 141 138 141 132 133 132 129 131 129 130 126 125 119 112 109 113 106 106 108 103 101 103 99 89 88 84 62 82 76 60 38 31 13 20 12 19 13 33 35 15 25 20 6 350 349 350 346 344 339 336 345 337 338 11 2 29 10 30 23 32 37 7 75 45 44 360 343 125 220 258 271 278 278 278 280 282 286 287 289 290 291 292
161 155 148 147 144 140 135 138 136 133 133 132 133 132 127 122 117 113 109 108 115 104 104 103 104 88 78 101 108 88 26 46 13 360 4 3 12 12 19 23 32 21 15 13 6 0 348 343 341 332 328 317 327 338 340 323 357 19 360 28 24 18 38 24 6 36 5 14 340 322 320 286 223 250 271 279 285 284 284 283 285 287 288 289 290
161 156 149 155 146 143 139 142 138 136 139 136 135 132 130 126 126 118 114 117 120 113 105 105 100 103 103 165 140 149 319 1 360 343 338 355 6 1 31 33 27 15 14 3 359 352 352 346 352 332 337 329 338 4 339 320 355 20 342 41 8 21 24 6 3 341 360 343 317 314 304 303 307 237 240 259 271 279 283 284 285 286 286 287 287
156 158 157 158 148 148 148 147 145 144 146 140 138 140 137 129 128 123 117 121 113 116 112 110 121 127 144 172 197 225 282 308 321 335 332 357 9 19 18 38 30 18 9 2 359 2 356 352 352 340 355 351 360 9 360 24 43 19 360 13 336 9 335 346 353 356 310 311 344 295 279 278 275 296 292 241 248 266 271 278 282 284 286 286 285
152 161 163 157 158 156 155 153 157 151 155 148 153 144 147 142 136 132 127 132 123 129 120 127 144 150 183 170 214 227 247 269 290 320 333 351 11 42 33 36 22 8 13 13 352 1 358 353 359 343 353 8 1 16 3 33 30 39 30 346 333 350 318 330 339 312 294 306 287 288 281 280 286 288 284 297 241 234 251 268 276 283 284 285 284
163 158 160 162 162 161 165 159 161 163 160 158 157 150 151 148 140 140 140 161 141 139 135 140 135 157 187 173 200 217 238 257 287 303 328 347 21 39 43 21 12 8 15 14 360 5 360 354 2 346 352 5 349 37 39 56 34 22 41 345 8 303 293 324 308 306 329 296 293 291 279 275 274 285 286 284 291 284 240 262 269 279 280 282 282
168 162 160 166 166 164 172 167 168 168 165 164 160 157 153 156 159 161 149 171 165 147 155 161 164 162 179 170 177 214 246 254 259 280 303 350 40 48 58 30 10 10 5 16 15 10 359 359 357 6 356 329 330 33 66 46 52 29 35 30 27 1 342 355 321 321 298 282 276 286 292 290 278 250 255 263 274 290 230 231 260 266 273 278 285
169 173 169 168 169 167 175 177 170 172 166 165 167 164 165 158 170 165 167 181 177 157 143 157 157 148 185 176 173 211 221 218 197 159 299 30 32 29 37 23 7 5 8 16 14 13 4 358 354 11 2 335 356 11 34 30 19 32 31 42 44 25 34 331 318 273 277 282 275 289 296 309 295 304 302 304 298 277 293 236 222 249 253 262 275
175 177 175 170 169 169 170 174 175 175 167 166 162 164 156 162 165 173 168 184 185 153 145 145 129 154 166 141 157 191 153 150 134 149 160 134 94 69 33 30 10 15 7 10 19 13 8 0 349 8 4 16 6 13 26 357 13 359 32 38 50 47 19 13 252 274 294 311 320 306 294 280 293 279 277 275 269 261 268 302 308 310 276 215 268
173 174 177 175 173 171 173 172 178 175 164 167 169 172 172 174 174 172 178 178 173 163 165 148 128 145 133 142 147 149 140 136 153 167 167 138 88 66 41 17 21 15 13 13 14 11 7 354 355 357 1 42 60 29 26 17 40 27 26 28 30 7 360 327 295 304 302 296 310 312 308 315 290 303 291 281 290 302 287 291 283 292 304 301 272
171 175 181 183 180 179 175 177 174 173 172 173 176 176 173 168 177 185 177 164 163 153 176 167 165 137 129 137 146 146 140 145 158 180 163 154 147 87 57 22 8 19 12 12 5 2 7 347 337 336 351 30 50 41 60 341 6 211 310 358 355 330 299 287 311 311 304 315 310 293 297 291 303 288 297 294 288 303 301 276 288 286 291 298 291
176 180 189 188 184 185 183 177 170 178 183 181 172 176 175 179 177 180 178 167 169 183 178 190 183 151 155 156 160 140 139 140 151 175 175 190 171 141 67 29 13 19 359 358 358 7 2 6 356 341 59 24 46 14 41 281 83 13 359 1 353 325 326 303 317 338 331 322 316 289 276 293 319 331 310 281 279 282 291 300 283 300 294 292 299
176 184 189 188 185 188 188 179 175 179 184 181 176 177 176 172 188 168 194 162 187 202 179 159 189 202 184 183 171 153 146 139 149 163 158 182 171 120 25 54 20 6 357 5 7 11 3 11 8 8 347 94 55 52 29 335 21 42 45 303 21 336 84 6 9 347 330 339 321 328 328 305 327 322 316 304 305 309 313 308 305 297 296 296 301
178 182 188 191 190 193 189 184 178 182 177 179 184 181 176 164 163 126 140 226 152 157 168 174 196 218 215 198 199 188 179 166 145 153 133 138 156 289 33 3 24 14 2 360 359 10 3 11 12 20 345 348 40 47 43 39 4 336 337 13 352 331 331 36 342 2 329 11 15 40 44 351 360 356 318 321 346 337 310 295 300 296 294 302 309
184 186 188 191 195 193 189 184 181 183 181 176 181 171 155 152 145 121 134 138 137 158 178 192 202 204 218 206 200 195 196 194 145 137 112 102 37 314 350 4 355 3 353 347 351 357 2 4 15 13 22 3 25 47 56 44 63 20 18 266 341 254 8 354 333 50 344 16 43 39 54 356 12 31 356 358 345 348 349 354 341 306 310 315 317
190 189 190 190 192 191 186 181 179 182 185 181 176 171 179 175 169 175 178 188 186 181 194 196 191 198 206 181 178 195 200 203 187 174 103 52 4 331 326 327 330 335 336 341 338 327 21 350 38 5 32 33 358 17 65 80 52 66 49 290 274 345 330 356 311 7 336 19 340 11 18 5 355 10 2 343 352 354 2 349 350 338 0 356 347
193 187 187 188 189 187 184 184 182 181 182 180 174 176 180 190 194 203 204 198 199 201 209 212 203 189 196 187 181 184 189 220 207 205 184 165 269 317 304 297 305 295 313 307 311 332 360 15 12 20 22 14 9 52 30 29 100 72 67 65 233 263 270 317 5 321 331 29 336 344 15 0 353 356 0 358 359 6 11 349 346 359 23 9 357
190 186 185 184 183 182 182 185 182 180 182 176 180 183 184 189 195 206 205 208 213 210 200 208 208 199 205 216 194 196 187 211 224 203 227 217 228 245 246 293 294 309 310 311 321 339 351 31 43 24 15 18 21 28 19 20 1 57 35 16 67 64 285 278 297 340 324 325 325 341 319 6 340 2 356 349 360 4 14 2 8 19 26 21 9
186 188 186 183 181 181 181 184 187 183 179 179 181 186 192 187 194 201 202 213 222 222 202 201 202 194 216 205 218 221 203 205 215 224 212 234 230 248 254 257 278 291 295 294 308 334 334 341 338 321 8 31 21 28 11 24 342 31 12 25 342 345 224 21 103 278 329 326 318 333 337 348 326 19 359 344 7 354 5 26 33 14 26 22 13
186 185 188 185 183 180 182 184 189 188 177 179 185 185 191 188 194 199 201 203 205 208 210 203 200 189 212 209 211 221 231 218 211 214 220 226 229 234 252 261 270 285 295 318 313 312 306 284 287 317 346 352 18 346 2 14 1 359 12 340 349 336 287 247 274 335 334 295 309 319 334 338 335 5 349 2 1 26 20 13 9 27 21 23 13
184 183 187 190 189 186 185 187 188 186 178 182 184 186 189 192 198 195 201 203 199 198 194 200 191 190 212 217 213 218 224 236 242 221 237 234 238 252 262 257 272 281 277 289 294 300 304 281 277 291 273 311 331 339 318 326 342 336 334 356 316 336 9 345 359 357 332 319 320 320 331 355 338 344 9 0 355 21 21 27 21 30 22 18 17